Location: Tel Aviv
(32.0670°N, 34.7670°E)
Time: 12:37:00
(UTC+03:00)

Tiros 1 - Pass Details

Date: 23 January 2022
Orbit: 629 x 663 km, 48.4° (Epoch: 27 May)

Event Time Altitude Azimuth Distance (km) Brightness Sun altitude
Exits shadow 06:44:49 - 299° (WNW) 2,975 9.8 0.2°
Rises 06:44:52 0° 299° (WNW) 2,955 9.8 0.2°
Reaches altitude 10° 06:47:27 10° 288° (WNW) 2,036 9.1 0.7°
Maximum altitude 06:51:29 29° 228° (SW) 1,172 8.3 1.5°
Drops below altitude 10° 06:55:28 10° 169° (S) 2,009 10.3 2.3°
Sets 06:58:00 0° 158° (SSE) 2,908 11.3 2.7°
